This is the latest recevied weather packets stored in our database for station/object K7NDG. If no packets are shown the sender has not sent any weather packets the latest 10 day(s).
| Time | Temp. | Humidity | Pressure | Rain* | Wind** | Luminosity | Snow |
|---|---|---|---|---|---|---|---|
| 1777865511 | 22.78° C | 51% | 1008.6 hPa | 0 mm | - | 0 W/m² | - |
| 1777865207 | 23.33° C | 50% | 1008.5 hPa | 0 mm | - | 0 W/m² | - |
| 1777864905 | 23.33° C | 49% | 1008.5 hPa | 0 mm | - | 2 W/m² | - |
| 1777864602 | 23.89° C | 48% | 1008.5 hPa | 0 mm | - | 2 W/m² | - |
| 1777864298 | 24.44° C | 46% | 1008.5 hPa | 0 mm | - | 5 W/m² | - |
| 1777863995 | 25° C | 46% | 1008.6 hPa | 0 mm | - | 7 W/m² | - |
| 1777863691 | 25.56° C | 44% | 1008.5 hPa | 0 mm | - | 10 W/m² | - |
| 1777863388 | 26.11° C | 44% | 1008.6 hPa | 0 mm | - | 12 W/m² | - |
| 1777863085 | 26.67° C | 44% | 1008.5 hPa | 0 mm | - | 15 W/m² | - |
| 1777862782 | 26.67° C | 43% | 1008.3 hPa | 0 mm | - | 17 W/m² | - |
| 1777862479 | 27.22° C | 42% | 1008.3 hPa | 0 mm | - | 22 W/m² | - |
| 1777862176 | 27.22° C | 41% | 1008.4 hPa | 0 mm | - | 23 W/m² | - |
| 1777861871 | 27.22° C | 41% | 1008.3 hPa | 0 mm | - | 24 W/m² | - |
| 1777861568 | 27.78° C | 41% | 1008.3 hPa | 0 mm | - | 31 W/m² | - |
| 1777861264 | 27.78° C | 40% | 1008.4 hPa | 0 mm | - | 32 W/m² | - |
| 1777860962 | 28.33° C | 41% | 1008.1 hPa | 0 mm | - | 37 W/m² | - |
| 1777860658 | 28.89° C | 40% | 1008.3 hPa | 0 mm | - | 61 W/m² | - |
| 1777860355 | 28.89° C | 34% | 1008.1 hPa | 0 mm | - | 71 W/m² | - |
| 1777860051 | 28.89° C | 34% | 1008.2 hPa | 0 mm | - | 83 W/m² | - |
| 1777859748 | 29.44° C | 33% | 1008.1 hPa | 0 mm | - | 83 W/m² | - |
| 1777859444 | 29.44° C | 33% | 1008.4 hPa | 0 mm | - | 62 W/m² | - |
| 1777859140 | 29.44° C | 33% | 1008.4 hPa | 0 mm | - | 49 W/m² | - |
| 1777858838 | 29.44° C | 34% | 1008.4 hPa | 0 mm | - | 75 W/m² | - |
| 1777858535 | 29.44° C | 33% | 1008.5 hPa | 0 mm | - | 53 W/m² | - |
| 1777858232 | 30° C | 34% | 1008.5 hPa | 0 mm | - | 59 W/m² | - |
* Rain latest hour (hover to see other rain measurements)
** Current wind speed in m/s (hover to see current wind gust speed)